Regional Weather Roundup
Issued by NWS Charleston, SC

Current Version | Previous Version | Graphics & Text | Print | Product List | Glossary On
Versions: 1 2 3 4 5 6 7 8 9 10 11 12 13 14 15 16 17 18 19 20 21 22 23 24 25 26 27 28 29 30 31 32 33 34 35 36 37 38 39 40 41 42 43 44 45 46 47 48 49 50
000
ASUS42 KCHS 220026
RWRCHS

REGIONAL WEATHER ROUNDUP
NATIONAL WEATHER SERVICE CHARLESTON SC
800 PM EDT THU SEP 21 2017

NOTE: "FAIR" INDICATES FEW OR NO CLOUDS BELOW 12,000 FEET WITH NO
SIGNIFICANT WEATHER AND/OR OBSTRUCTIONS TO VISIBILITY.

NOT ALL STATIONS ARE QUALITY CONTROLLED. USE DATA WITH CAUTION...
ESPECIALLY DEWPOINT OBSERVATIONS.

SCZ027-030-031-034>040-042>050-220100-
...SOUTHEAST SOUTH CAROLINA...

CITY           SKY/WX    TMP DP  RH WIND       PRES   REMARKS
N CHARLESTON   CLOUDY    76  67  73 CALM      30.00R
6HR MIN TEMP:  74; 6HR MAX TEMP:  89; 6HR PCP: TRACE;

WATERFRONT PRK   N/A     81  75  82 VRB3      29.82R
JOHNS ISLAND   FAIR      79  75  89 CALM      29.99S
PINOPOLIS        N/A     79  72  78 E5        29.93R
MONCKS CORNER  FAIR      75  66  73 E10       30.03R
SUMMERVILLE    FAIR      72  64  78 CALM      30.01R
BEAUFORT MCAS  MOCLDY    77  70  79 SE3       29.98F
6HR MIN TEMP:  75; 6HR MAX TEMP:  91;

BEAUFORT ARPT  FAIR      75  64  69 CALM      29.98S
HILTON HEAD IS CLEAR     79  75  89 CALM      30.00R
WALTERBORO     CLOUDY    73  64  73 CALM      30.00R
ALLENDALE      NOT AVBL

...SOUTHERN MIDLANDS AND PEE DEE...

CITY           SKY/WX    TMP DP  RH WIND       PRES   REMARKS
GEORGETOWN     FAIR      72  68  88 NW6       30.02R
KINGSTREE      FAIR      72  66  83 SE8       30.01R
ORANGEBURG     PTCLDY    77  64  64 S6        30.00R
6HR MIN TEMP:  77; 6HR MAX TEMP:  93;

BARNWELL       FAIR      81  70  69 CALM      29.99R
AIKEN          MOCLDY    77  68  73 CALM      30.03R
MANNING        FAIR      70  59  68 CALM      30.01R
COLUMBIA       PTCLDY    84  67  56 SE8       29.98R
6HR MIN TEMP:  84; 6HR MAX TEMP:  95;

SUMTER         CLEAR     77  65  66 CALM      29.97R
6HR MIN TEMP:  77; 6HR MAX TEMP:  94;

FLORENCE       CLEAR     77  72  84 S7        30.00R
6HR MIN TEMP:  77; 6HR MAX TEMP:  91; 6HR PCP:  0.08;

MYRTLE BEACH   MOCLDY    74  69  85 NE9       30.03R
N MYRTLE BEACH CLOUDY    75  67  76 E14       30.01R THUNDER
6HR MIN TEMP:  74; 6HR MAX TEMP:  86; 6HR PCP:  0.02;


$$

GAZ063-065-086>088-099>101-113>116-118-119-134>141-150-220100-
...SOUTHEAST GEORGIA...

CITY           SKY/WX    TMP DP  RH WIND       PRES   REMARKS
SAVANNAH ARPT  PTCLDY    80  72  76 S7        29.99R
6HR MIN TEMP:  80; 6HR MAX TEMP:  91;

HUNTER AAF     CLEAR     80  73  80 S5        29.97R
6HR MIN TEMP:  80; 6HR MAX TEMP:  89;

FORT STEWART   CLEAR     79  71  76 SE3       29.97R
6HR MIN TEMP:  79; 6HR MAX TEMP:  90;

STATESBORO     CLOUDY    77  64  65 CALM      29.99R
SYLVANIA       CLOUDY    73  73  99 SE6       30.01R
CLAXTON        FAIR      80  75  84 CALM      29.99R

...CSRA...CENTRAL AND FAR SOUTHEAST GEORGIA...

CITY           SKY/WX    TMP DP  RH WIND       PRES   REMARKS
THOMSON        CLEAR     77  71  83 CALM      30.04R
AUGUSTA-BUSH   PTCLDY    79  69  71 SE5       29.97R
6HR MIN TEMP:  77; 6HR MAX TEMP:  96;

AUGUSTA-DANIEL PTCLDY    85  68  56 S3        29.99R
SWAINSBORO     TSTM      70  70 100 CALM      30.02F
VIDALIA        MOCLDY    73  73 100 CALM      30.00R
EASTMAN        FAIR      77  58  52 CALM      30.02R
HAZLEHURST     FAIR      79  60  51 CALM      29.99R
ALMA           CLOUDY    77  73  87 CALM      29.98R
6HR MIN TEMP:  76; 6HR MAX TEMP:  91; 6HR PCP:  0.31;

WAYCROSS       CLOUDY    79  74  86 CALM      29.98S
JESUP          NOT AVBL
BAXLEY         FAIR      77  73  88 CALM      29.98S
BRUNSWICK      MOCLDY    79  72  78 SE5       29.99S
SAINT SIMONS   MOCLDY    80  73  79 SE6       29.98R
6HR MIN TEMP:  80; 6HR MAX TEMP:  86;


$$

SCZ027-028-034-036>038-045-046-048>050-GAZ119-141-220100-
...LAKE AND SUPPLEMENTAL COASTAL OBSERVATIONS...

STATION/POSITION TIME  TEMP    WIND        PRES    WAVE   SWELL
                       AIR SEA DIR/SP/G            HT/PER HT/PER/DIR
                 (UTC) (F)     (DEG/KT/KT) (MB)    (FT/S) (FT/S/D)
WINYAH BAY       NOT AVBL
LAKE MURRAY      2320   85      CALM  /  1 1013.9
ACE BASIN NERRS  2245   76     260/  1     1015.0
FORT PULASKI     2348   80 80  160/  1/  2 1015.9R
SAPELO ISLAND    2300   80        CALM     1015.0

$$

ANZ835-935-AMZ111-154-330-350-352-354-370-450-454-472-220100-
...C-MAN AND BUOY OBSERVATIONS...

STATION/POSITION TIME  TEMP    WIND        PRES    WAVE   SWELL
                       AIR SEA DIR/SP/G            HT/PER HT/PER/DIR
                 (UTC) (F)     (DEG/KT/KT) (MB)    (FT/S) (FT/S/D)
BUOY 41004       2350   81 82  180/  4/  4 1014.9R   2/11   2/110/11
BUOY 41008       2350   80 82  130/  6/  6 1015.2R   2/10   2/140/10
FOLLY BEACH CMAN 0000   80     230/  3/  3 1016.4R
CAPERS NEARSHORE 2308   78 81  210/  8/ 12 1014.9R
FRIPP NEARSHORE  2308   81     200/  4/  6 1018.6F


STATION/POSITION TIME  TEMP    WIND        PRES    WAVE   SWELL
                       AIR SEA DIR/SP/G            HT/PER HT/PER/DIR
                 (UTC) (F)     (DEG/KT/KT) (MB)    (FT/S) (FT/S/D)
5E ST. MARYS GA  2330      84                N/A     2/12   2/ 80/12
FRYING PAN BUOY  0000   77 82   10/ 19/ 23 1015.7
BUOY 41025       2350   75 76   50/ 10/ 12 1015.8R   5/11   5/ 40/11
CAPE LOOKOUT NC  0000   78     270/  2/  3 1015.4R
BUOY 41002       2350   79 83   CALM  /  2 1015.2F   4/ 9   5/ 30/ 9
BUOY 41010       2350           70/ 14/ 16 1014.1R   4/11   3/11
ST AUGUSTINE FL  0000   81 84   90/  8/  9 1015.1R


$$



USA.gov is the U.S. government's official web portal to all federal, state and local government web resources and services.